Wind_Speed
21 21 21 20 20 21 22 22 21 21 21 20 20 21 21 21 21 22 22 23 24 24 23 23 23 22 22 22 22 22 24 24 24 25 26 27 28 28 29 28 26 27 28
21 20 20 20 21 21 21 20 20 20 21 20 21 21 21 21 22 22 23 23 23 23 23 23 22 21 21 22 22 22 23 24 24 25 26 26 27 28 29 29 28 28 28
20 19 19 20 20 20 20 20 20 20 21 21 21 21 21 22 22 22 22 23 23 23 22 22 21 21 21 21 22 22 23 23 24 24 25 26 27 28 27 27 28 29 29
19 19 19 19 19 20 20 20 21 21 21 22 21 22 22 21 22 22 22 22 22 22 22 21 20 20 20 20 21 21 22 23 23 23 24 25 25 26 26 26 27 27 28
19 19 19 19 19 20 21 21 21 21 21 22 22 22 22 22 23 22 22 21 22 21 21 20 20 20 19 19 20 20 21 21 21 22 22 22 22 24 25 25 25 26 26
19 19 19 19 20 20 21 22 22 22 22 22 23 23 23 23 23 22 22 21 21 21 20 20 20 20 20 20 19 20 20 20 20 21 21 21 21 22 24 24 24 24 24
19 19 19 20 20 21 22 22 22 21 21 22 23 23 23 22 22 21 21 20 20 20 20 19 19 19 19 19 18 19 19 19 19 20 21 21 21 22 23 24 24 24 23
20 20 20 20 21 21 21 21 20 20 21 21 21 22 21 21 21 21 20 20 19 19 19 18 18 18 18 17 17 17 17 17 18 19 20 20 21 22 22 23 23 23 23
20 20 20 20 20 20 20 20 20 20 21 21 21 20 20 20 20 19 18 18 18 17 17 17 17 17 17 16 16 15 16 16 17 18 19 20 20 21 21 21 22 21 21
19 19 19 20 20 20 20 20 20 20 20 19 20 20 19 19 18 17 17 17 16 15 16 16 16 15 15 15 14 14 14 15 15 16 17 17 17 18 18 18 19 19 19
18 19 19 19 20 20 19 19 19 18 18 19 19 19 19 18 18 17 17 16 16 15 15 15 14 14 14 13 14 14 14 14 15 15 15 14 14 14 15 16 17 17 18
18 18 18 19 19 19 19 19 18 17 18 18 19 19 18 18 18 17 17 16 15 15 14 14 13 13 12 12 13 13 14 14 14 14 13 13 13 13 13 15 16 17 18
18 18 18 18 18 18 18 17 17 17 17 18 18 18 18 17 18 18 17 16 16 15 15 14 13 12 12 13 13 13 14 14 13 13 13 13 13 13 14 14 15 16 17
17 17 17 18 17 17 16 16 16 17 17 18 17 17 17 18 17 17 16 16 16 16 15 14 14 13 13 14 14 14 14 14 14 14 13 14 14 14 14 15 15 16 17
16 16 16 16 16 15 15 15 16 17 17 17 17 16 17 17 17 17 17 16 16 16 15 15 14 14 14 14 14 15 15 15 14 14 14 15 15 15 15 15 16 16 16
16 15 15 16 15 14 13 14 15 15 16 16 16 16 17 17 17 17 17 17 17 17 16 16 16 16 15 15 15 15 15 14 14 14 14 15 15 16 16 16 17 17 18
15 14 14 14 14 13 13 13 14 14 14 15 16 16 17 17 17 18 18 18 18 18 17 17 17 17 16 16 16 16 16 15 14 14 14 15 16 16 17 17 18 18 17
14 13 13 13 13 12 12 13 14 14 14 15 15 16 16 16 17 18 19 19 19 18 18 18 17 17 17 17 17 17 16 15 15 15 15 15 16 16 17 17 16 16 17
13 13 13 12 11 11 13 13 13 13 14 14 15 16 16 17 17 18 19 20 19 19 19 19 19 18 18 18 18 18 17 16 16 16 16 16 16 15 16 16 16 16 16
13 13 12 11 11 12 13 13 12 13 14 14 14 15 16 17 18 19 20 20 20 19 19 19 19 19 19 19 20 20 19 18 17 17 17 17 16 15 16 16 16 16 16
13 12 11 11 12 12 13 12 12 13 13 14 14 15 16 17 19 20 20 20 20 19 19 19 19 19 20 20 21 21 20 19 18 18 18 18 17 17 16 16 16 16 16
13 12 12 12 12 12 12 12 12 13 13 14 14 15 16 17 18 20 21 21 20 20 19 20 20 20 20 20 21 21 21 20 19 18 19 19 18 17 17 17 17 16 16
12 12 12 12 12 12 12 12 12 13 13 14 15 16 17 18 19 20 20 21 20 20 20 20 21 20 20 20 21 21 21 20 19 18 19 19 18 18 17 17 16 16 15
12 12 12 12 12 12 12 12 12 13 14 14 14 16 17 18 19 20 20 20 20 20 21 21 21 21 20 20 21 21 21 20 20 18 18 18 17 17 17 16 16 15 15
12 12 12 12 12 12 12 12 13 14 14 14 15 16 17 17 19 19 20 20 21 21 21 21 21 21 21 21 21 21 22 21 19 19 18 18 17 17 17 17 16 16 15
12 12 12 11 11 12 13 13 13 14 14 14 15 16 17 18 18 19 19 20 20 21 21 21 21 21 21 21 21 21 22 21 19 18 18 18 18 18 17 17 16 16 15
Wind_Direction
309 309 308 309 309 309 310 310 311 310 310 307 306 306 305 303 303 305 306 304 302 301 299 297 294 291 285 281 280 277 274 272 269 266 265 264 264 264 265 265 265 263 261
313 312 312 312 312 310 310 311 313 314 312 310 307 306 305 304 305 306 307 307 305 303 300 299 295 291 288 284 282 279 275 272 271 270 267 268 266 265 265 264 264 264 262
317 315 314 314 314 315 315 314 314 312 312 311 309 307 306 304 305 306 307 308 307 305 302 297 293 292 290 287 283 281 277 274 273 272 271 269 266 266 266 266 265 265 264
319 317 316 315 316 317 316 316 316 314 313 311 309 307 307 307 307 306 305 305 305 304 303 301 298 295 292 290 287 284 281 277 275 273 273 272 268 267 266 265 265 266 265
321 320 320 319 319 319 320 319 317 316 315 313 310 307 306 306 306 307 306 305 304 304 303 302 302 299 297 294 291 289 285 280 278 276 275 274 273 269 268 267 266 267 266
323 322 322 321 322 322 322 321 319 318 318 316 312 308 306 306 306 307 306 304 303 302 303 302 301 302 299 297 294 291 287 283 280 278 277 276 276 274 272 271 271 270 269
323 323 323 323 322 323 323 323 322 320 318 318 316 313 310 308 307 307 307 305 303 304 305 304 304 306 302 300 296 293 291 287 283 281 279 278 276 276 274 272 271 271 271
323 324 323 324 325 325 326 327 328 326 323 322 320 319 317 315 312 309 309 307 306 305 305 304 306 308 307 305 302 299 296 291 288 284 282 280 277 276 276 273 272 270 271
325 326 327 327 328 328 329 329 329 328 327 327 327 327 327 324 320 315 311 311 310 308 307 308 308 308 307 305 306 302 300 295 291 289 287 283 281 279 276 275 272 271 270
326 327 329 330 330 330 330 330 331 331 332 333 335 337 336 334 331 327 322 318 315 311 310 310 309 310 311 311 311 307 305 304 300 297 294 289 286 283 280 278 275 273 273
327 328 330 332 332 333 334 334 335 337 339 341 341 342 342 342 340 338 334 327 325 321 318 315 311 309 313 316 315 313 309 309 308 305 301 298 294 290 286 283 280 277 278
326 328 330 333 335 338 339 339 340 342 344 346 347 347 347 347 347 346 344 339 336 332 327 322 318 315 317 318 318 316 312 311 310 307 306 303 299 297 293 289 287 284 284
325 327 329 332 335 338 340 341 343 346 346 347 348 349 350 350 350 348 349 347 344 343 338 332 326 323 322 321 319 317 315 311 310 308 307 304 301 300 296 295 292 291 290
324 327 328 331 334 337 341 344 345 346 347 348 349 350 352 352 352 351 352 351 349 348 347 343 336 331 327 325 323 321 319 315 312 310 309 308 306 304 302 299 297 296 295
322 324 327 330 333 335 339 343 345 348 349 350 353 354 354 355 354 353 354 353 351 351 349 349 347 342 336 333 330 328 326 322 316 311 311 310 308 308 306 303 300 299 299
320 323 326 330 333 334 338 341 345 347 351 354 355 355 355 355 355 354 354 355 353 353 350 348 347 344 342 339 335 332 329 325 321 314 312 311 309 308 308 306 302 301 299
321 323 325 329 334 335 338 339 342 346 350 352 354 354 354 354 353 353 354 355 355 355 353 350 349 346 344 341 338 335 330 326 322 318 314 312 310 309 309 309 305 303 303
320 323 324 327 332 335 336 336 338 340 345 349 351 352 354 354 354 356 356 356 354 353 352 351 349 348 345 343 340 338 334 328 324 322 319 315 312 310 312 312 308 305 303
316 319 321 325 329 331 332 332 334 337 342 344 347 349 351 352 352 351 351 351 350 350 350 350 349 348 347 347 344 341 337 332 326 323 323 322 320 318 317 316 313 309 305
314 315 319 324 327 328 329 330 332 335 337 339 341 345 348 350 350 349 349 349 348 348 349 350 350 350 349 348 346 343 341 337 332 328 329 329 326 325 324 321 318 314 310
312 314 318 320 323 325 327 330 332 333 336 337 339 344 345 346 347 348 347 348 348 348 349 348 347 347 348 347 347 346 345 342 337 331 331 331 329 324 322 322 321 316 314
307 310 313 315 317 320 322 323 326 330 334 335 336 339 341 342 343 344 345 346 347 347 348 348 346 344 344 346 346 344 345 345 342 336 335 333 330 326 324 324 323 321 319
304 308 310 312 313 315 318 318 322 326 330 332 335 337 337 339 340 340 342 344 346 346 346 345 345 344 344 345 344 344 344 344 341 336 335 335 332 329 328 328 326 324 321
300 303 306 309 311 311 314 317 319 323 327 329 331 333 334 335 338 339 340 343 345 345 345 345 344 344 344 344 344 343 345 344 341 338 338 338 337 337 335 334 331 328 324
294 298 300 303 306 308 311 314 317 321 323 324 327 330 332 333 335 337 339 341 343 344 342 342 344 343 343 344 344 344 345 344 340 338 339 340 340 340 340 338 335 332 330
290 293 295 298 302 307 311 312 316 319 319 320 324 327 329 331 334 336 338 340 341 342 342 341 342 343 343 344 345 346 346 346 344 342 340 339 340 341 340 338 336 333 332
Height
5767 5763 5760 5757 5754 5751 5748 5745 5743 5740 5737 5735 5732 5729 5727 5725 5723 5720 5717 5714 5710 5707 5703 5701 5698 5696 5694 5693 5691 5690 5689 5688 5688 5689 5689 5689 5689 5689 5690 5690 5690 5691 5691
5762 5758 5755 5752 5750 5747 5743 5741 5738 5735 5732 5729 5727 5724 5722 5720 5717 5714 5711 5708 5704 5701 5697 5694 5692 5689 5688 5686 5684 5683 5682 5681 5680 5681 5680 5680 5680 5680 5681 5681 5682 5682 5682
5758 5754 5752 5749 5746 5742 5739 5736 5734 5731 5727 5724 5722 5719 5716 5714 5711 5708 5705 5701 5698 5694 5691 5688 5686 5683 5681 5679 5677 5676 5674 5673 5672 5672 5672 5671 5671 5671 5671 5672 5672 5672 5673
5754 5751 5748 5745 5742 5739 5735 5732 5729 5726 5722 5719 5716 5713 5710 5708 5705 5701 5698 5695 5692 5688 5685 5682 5679 5677 5674 5672 5670 5668 5667 5665 5664 5664 5663 5663 5662 5662 5663 5663 5663 5663 5664
5751 5747 5744 5741 5738 5735 5731 5728 5724 5721 5717 5714 5710 5707 5704 5701 5698 5695 5692 5689 5685 5682 5679 5676 5674 5671 5668 5666 5663 5661 5660 5658 5657 5656 5656 5655 5654 5654 5655 5654 5654 5654 5655
5747 5743 5740 5737 5734 5730 5727 5723 5719 5716 5712 5708 5704 5701 5698 5695 5691 5688 5685 5682 5679 5676 5673 5670 5668 5665 5662 5660 5657 5655 5653 5652 5650 5649 5649 5648 5647 5647 5646 5646 5646 5646 5647
5744 5740 5736 5733 5729 5726 5722 5718 5714 5710 5706 5702 5698 5694 5691 5688 5684 5681 5678 5676 5673 5670 5667 5664 5662 5659 5656 5654 5651 5649 5647 5645 5644 5643 5642 5641 5641 5640 5639 5639 5638 5638 5638
5740 5737 5733 5729 5725 5721 5717 5713 5709 5705 5701 5697 5693 5689 5685 5681 5678 5675 5672 5669 5666 5664 5661 5659 5656 5654 5651 5649 5646 5644 5642 5640 5638 5637 5636 5634 5633 5632 5631 5631 5630 5630 5630
5737 5733 5729 5725 5721 5717 5714 5710 5705 5701 5697 5693 5688 5684 5680 5676 5672 5669 5666 5663 5660 5658 5655 5653 5651 5649 5646 5644 5641 5639 5637 5635 5633 5631 5629 5627 5626 5624 5623 5623 5622 5622 5622
5734 5730 5727 5722 5718 5714 5710 5706 5702 5698 5693 5689 5685 5681 5676 5672 5668 5665 5662 5658 5656 5653 5651 5648 5646 5644 5641 5639 5637 5634 5632 5630 5627 5625 5623 5621 5619 5617 5617 5616 5616 5615 5615
5731 5727 5723 5720 5716 5711 5707 5703 5699 5695 5691 5686 5682 5678 5674 5669 5665 5661 5658 5654 5652 5649 5646 5644 5642 5639 5637 5635 5633 5630 5628 5625 5623 5620 5618 5616 5614 5612 5611 5611 5610 5610 5609
5728 5724 5721 5717 5713 5709 5705 5700 5696 5692 5689 5684 5680 5676 5671 5667 5663 5659 5655 5652 5648 5645 5643 5640 5638 5636 5633 5631 5629 5627 5624 5621 5619 5616 5614 5612 5610 5609 5608 5606 5605 5604 5604
5725 5721 5718 5714 5710 5706 5702 5699 5695 5691 5687 5683 5678 5675 5670 5666 5662 5658 5654 5650 5647 5643 5640 5637 5635 5633 5630 5628 5626 5623 5620 5617 5615 5613 5611 5609 5607 5605 5604 5602 5601 5599 5598
5722 5718 5715 5712 5708 5704 5701 5697 5693 5689 5685 5681 5677 5673 5669 5665 5661 5657 5653 5649 5646 5642 5639 5635 5632 5630 5627 5624 5622 5619 5617 5614 5611 5609 5607 5605 5603 5601 5599 5597 5596 5594 5593
5719 5716 5712 5709 5706 5702 5699 5695 5692 5688 5684 5680 5676 5672 5668 5665 5661 5657 5653 5649 5645 5641 5637 5634 5631 5628 5625 5622 5619 5616 5613 5610 5608 5605 5603 5601 5599 5597 5595 5593 5591 5589 5587
5716 5713 5710 5707 5704 5700 5697 5694 5691 5687 5683 5680 5676 5672 5668 5664 5660 5657 5653 5648 5644 5640 5637 5633 5630 5626 5623 5620 5616 5613 5610 5607 5604 5602 5600 5598 5595 5593 5591 5588 5586 5584 5582
5713 5710 5707 5704 5702 5699 5696 5693 5690 5687 5683 5679 5675 5672 5668 5664 5660 5656 5652 5648 5643 5640 5636 5632 5628 5624 5621 5617 5614 5610 5607 5604 5601 5598 5596 5593 5591 5588 5586 5583 5581 5578 5576
5710 5707 5705 5702 5700 5697 5694 5691 5688 5685 5682 5679 5675 5671 5667 5663 5660 5656 5651 5647 5643 5639 5635 5631 5627 5623 5619 5615 5611 5608 5604 5600 5597 5594 5591 5589 5586 5583 5581 5578 5575 5573 5571
5707 5705 5702 5700 5697 5695 5692 5690 5687 5684 5681 5678 5674 5671 5667 5663 5659 5655 5651 5647 5642 5638 5633 5629 5625 5621 5617 5613 5609 5604 5600 5597 5594 5590 5587 5584 5581 5578 5576 5573 5571 5568 5566
5704 5702 5700 5697 5695 5693 5691 5688 5685 5683 5680 5676 5673 5670 5666 5662 5658 5654 5650 5645 5641 5636 5632 5627 5623 5619 5615 5611 5606 5602 5597 5593 5590 5586 5583 5580 5577 5574 5571 5569 5566 5563 5561
5701 5699 5697 5695 5693 5691 5688 5686 5683 5681 5678 5675 5672 5668 5665 5661 5657 5653 5648 5644 5639 5634 5630 5626 5622 5617 5613 5609 5604 5599 5595 5591 5587 5583 5580 5576 5573 5570 5567 5564 5562 5559 5556
5697 5695 5694 5692 5690 5688 5686 5683 5681 5679 5676 5673 5670 5667 5663 5659 5655 5651 5647 5642 5637 5633 5629 5624 5620 5615 5611 5606 5602 5597 5593 5589 5585 5581 5577 5573 5569 5566 5562 5560 5557 5554 5552
5694 5692 5690 5689 5687 5685 5683 5681 5679 5676 5674 5671 5668 5665 5661 5657 5653 5649 5645 5640 5636 5631 5627 5622 5618 5613 5609 5604 5600 5595 5591 5586 5582 5578 5574 5570 5566 5562 5558 5555 5552 5550 5548
5690 5688 5687 5685 5684 5682 5680 5678 5676 5673 5671 5668 5665 5662 5659 5655 5651 5647 5643 5638 5634 5630 5625 5620 5616 5611 5607 5602 5598 5593 5588 5583 5579 5575 5571 5567 5563 5558 5555 5552 5549 5546 5544
5686 5685 5683 5682 5680 5679 5677 5675 5673 5671 5668 5665 5663 5660 5656 5653 5649 5645 5641 5636 5632 5628 5623 5619 5614 5609 5605 5600 5596 5591 5586 5581 5577 5572 5568 5564 5560 5556 5552 5549 5546 5543 5541
5681 5681 5679 5678 5676 5675 5673 5671 5669 5667 5665 5662 5660 5657 5653 5650 5646 5642 5638 5634 5630 5626 5621 5617 5612 5608 5603 5598 5594 5589 5584 5579 5574 5570 5566 5562 5558 5554 5550 5547 5544 5541 5538